星链-11240 (STARLINK-11240)

导读 | 星芒AI

STARLINK-11240 是 SpaceX Starlink 卫星互联网项目中的一颗低轨卫星,属于第5批发射的星链卫星。该卫星于2020年11月25日由猎鹰9号火箭送入近地轨道,旨在为全球提供高速、低延迟的宽带互联网服务。它运行在约550公里高度的轨道上,配备先进通信设备,支持Ka和Ku频段。Starlink 项目计划部署数千颗卫星,以构建覆盖全球的卫星网络,尤其服务于偏远和网络基础设施薄弱的地区。STARLINK-11240 在该项目中发挥着关键作用。

基本信息
目录编号:
60929
目录名称:
STARLINK-11240
国际标识:
2024-155F
轨道中心:
EARTH
卫星名称:
星链-11240
卫星全名:
星链-11240 (STARLINK-11240)
卫星状态:
在轨 (已飞行424 天)
发射日期:
2024-08-31 UTC
国别 :
美国 (US)
星等 :
--
轨道信息
数据来源 国际轨道数据
星历时间: 2025-10-28T12:46:03+0800
1天前
查看轨道信息
半长轴: 6737.884km
偏心率: 0.0001142
轨道倾角: 53.158°
近地点辐角 77.627°
升交点赤经 274.352°
平近点角 282.487°
近地点: 358.979km
远地点: 360.519km
周期: 91.737分钟
每日圈数: 15.697032
详细信息
固有亮度:
5
最大亮度:
2.5
卫星平台:
Starlink V1.0
覆盖范围:
全球
运营商:
太空探索技术公司
运营商所在国:
美国
制造商(研发单位):
太空探索技术公司
制造商所在国:
美国
使用方式:
暂无
卫星简介
Starlink 计划是 SpaceX 推出的全球卫星互联网项目,通过发射低轨道卫星,为全球尤其是偏远地区提供高速、低延迟的互联网服务。自 2019 年起,Starlink 已部署数千颗卫星,旨在缩小全球数字鸿沟,推动互联网普及。该项目还为军事、航空等行业提供通信支持,带来广泛经济效益。
2D轨道图
3D轨道图
轨道高度分析图
轨道倾角分析图
轨道综合分析图
查看轨道综合分析图